Regional Weather Roundup
Issued by NWS Midland/Odessa, TX

Home | Current Version | Previous Version | Text Only | Print | Product List | Glossary On
Versions: 1 2 3 4 5 6 7 8 9 10 11 12 13 14 15 16 17 18 19 20 21 22 23 24 25 26 27 28 29 30 31 32 33 34 35 36 37 38 39 40 41 42 43 44 45 46 47 48 49 50
000
ASUS44 KMAF 111210
RWRMAF
MIDLAND AREA WEATHER ROUNDUP
NATIONAL WEATHER SERVICE MIDLAND TX
600 AM CST SUN DEC 11 2016

...IN SOUTHWEST TEXAS AND SOUTHEAST NEW MEXICO...

CITY           SKY/WX    TMP DP  RH WIND       PRES   REMARKS
ALPINE         PTCLDY    52  40  64 SW16      30.08F
ANDREWS        FAIR      49  40  70 SW15G22   29.88F
ARTESIA        CLOUDY    55  32  41 CALM      29.88F
BIG SPRING     CLOUDY    42  41  97 S14       29.91F WCI  35
CARLSBAD       CLOUDY    58  35  42 CALM      29.88F
DRYDEN           N/A     42  42 100 SW7       30.01F WCI  38
FORT STOCKTON  NOT AVBL
GUAD PASS      CLOUDY    46  35  65 SW29G39   30.00F WCI  37
HOBBS          CLOUDY    45  39  81 SW7       29.90S
MARFA          FOG       27  27 100 CALM      30.09F VSB 1/4
MIDLAND AIRPK  CLOUDY    44  40  86 SW9G18    29.91F WCI  39
MIDLAND INTL   CLOUDY    41  38  89 SW10      29.91F WCI  35
ODESSA         CLOUDY    42  38  85 SW12      29.92F WCI  36
PECOS          CLOUDY    35  33  95 SE6       29.93F WCI  29
PRESIDIO       FAIR      40  38  94 E3        30.06S
SEMINOLE       CLOUDY    43  38  82 W12       29.89S WCI  37
SNYDER         FOG       39  39  99 S7        29.89S VSB 1/4 WCI  34
WINK           CLOUDY    35  35 100 E8        29.92S FOG     WCI  29
$$
...OTHER STATIONS IN TEXAS...

CITY           SKY/WX    TMP DP  RH WIND       PRES   REMARKS
ABILENE        CLOUDY    54  50  86 S30G39    29.88F
AMARILLO       CLOUDY    51  31  46 W20       29.70S
AUSTIN         DRZL/FOG  53  53 100 S7        30.04F VSB 1/4
BROWNSVILLE    CLOUDY    53  51  93 W3        30.09R
CORPUS CHRISTI CLOUDY    55  55 100 W5        30.07S FOG
DALLAS FTW     CLOUDY    49  45  86 S13       29.96S
DEL RIO        CLOUDY    47  46  97 SE6       30.04F FOG
EL PASO        CLOUDY    51  35  54 SW13      30.03S
HOUSTON INT    CLOUDY    62  58  86 SE7       30.08S
LUBBOCK        CLOUDY    42  36  79 SW15      29.80F WCI  34
SAN ANGELO     CLOUDY    51  48  89 S28G36    29.95F
SAN ANTONIO    DRIZZLE   51  50  96 SW3       30.06F FOG
WACO           CLOUDY    51  51 100 S12       29.99F FOG
WICHITA FALLS  NOT AVBL
$$
...OTHER LOCATIONS IN NEW MEXICO...

CITY           SKY/WX    TMP DP  RH WIND       PRES   REMARKS
ALAMAGORDO     NOT AVBL
ALBUQUERQUE    CLOUDY    36  28  73 S9        30.00S WCI  29
CANNON AFB     CLOUDY    47  32  56 W22       29.80S WCI  39
CLOVIS         CLOUDY    48  30  49 W29G38    29.77F WCI  40
HOLLOMAN AFB   CLOUDY    44  34  67 SE8       30.03F WCI  39
ROSWELL        CLOUDY    33  29  85 NW3       29.88F
RUIDOSO        CLOUDY    45  18  33 NE6       29.98S
SANTA FE       CLOUDY    26  22  84 NW3       29.97S
TRUTH OR CONSE PTCLDY    37  29  72 CALM      30.01F
TUCUMCARI      CLOUDY    52  29  41 W22G30    29.75S
$$



USA.gov is the U.S. government's official web portal to all federal, state and local government web resources and services.